TimeEST,TemperatureF,Dew PointF,Humidity,Sea Level PressureIn,VisibilityMPH,Wind Direction,Wind SpeedMPH,Gust SpeedMPH,PrecipitationIn,Events,Conditions,WindDirDegrees,DateUTC
12:53 AM,17.1,12.9,84,30.15,4.0,Calm,Calm,-,N/A,,Clear,0,2011-01-17 05:53:00
1:53 AM,16.0,12.0,84,30.14,4.0,Calm,Calm,-,N/A,,Clear,0,2011-01-17 06:53:00
2:53 AM,18.0,14.0,84,30.14,4.0,Calm,Calm,-,N/A,,Clear,0,2011-01-17 07:53:00
3:53 AM,19.0,15.1,85,30.11,5.0,SE,8.1,-,N/A,,Scattered Clouds,130,2011-01-17 08:53:00
4:53 AM,21.0,16.0,81,30.08,6.0,ESE,9.2,-,N/A,,Haze,120,2011-01-17 09:53:00
5:53 AM,21.9,16.0,78,30.06,7.0,ESE,8.1,-,N/A,,Overcast,120,2011-01-17 10:53:00
6:53 AM,21.9,16.0,78,30.04,7.0,ESE,6.9,-,N/A,,Mostly Cloudy,120,2011-01-17 11:53:00
7:53 AM,21.9,17.1,82,30.04,7.0,Calm,Calm,-,N/A,,Overcast,0,2011-01-17 12:53:00
8:53 AM,23.0,18.0,81,30.04,6.0,ESE,5.8,-,N/A,,Haze,120,2011-01-17 13:53:00
9:53 AM,25.0,19.0,78,30.01,6.0,SE,10.4,-,N/A,,Haze,130,2011-01-17 14:53:00
10:53 AM,27.0,21.0,78,30.01,6.0,SE,6.9,-,N/A,,Haze,130,2011-01-17 15:53:00
11:53 AM,30.0,23.0,75,29.96,6.0,SE,9.2,-,N/A,,Haze,140,2011-01-17 16:53:00
12:53 PM,33.1,24.1,70,29.91,6.0,SSE,8.1,-,N/A,,Haze,150,2011-01-17 17:53:00
1:53 PM,35.1,26.1,70,29.87,6.0,SSE,12.7,-,N/A,,Haze,150,2011-01-17 18:53:00
2:53 PM,36.0,28.9,76,29.85,5.0,SSE,9.2,-,0.00,,Haze,150,2011-01-17 19:53:00
3:53 PM,36.0,30.0,79,29.84,4.0,SSE,9.2,-,N/A,,Haze,150,2011-01-17 20:53:00
4:21 PM,37.4,30.2,75,29.81,4.0,SSE,9.2,-,N/A,,Haze,160,2011-01-17 21:21:00
4:44 PM,37.4,30.2,75,29.80,4.0,SSE,8.1,-,N/A,,Haze,150,2011-01-17 21:44:00
4:53 PM,36.0,32.0,86,29.83,3.0,SSE,6.9,-,N/A,,Overcast,150,2011-01-17 21:53:00
5:53 PM,36.0,32.0,86,29.81,3.0,SE,8.1,-,N/A,,Overcast,140,2011-01-17 22:53:00
6:53 PM,36.0,33.1,89,29.79,4.0,SSE,9.2,-,N/A,,Overcast,150,2011-01-17 23:53:00
7:22 PM,35.6,33.8,93,29.76,3.0,SSE,9.2,-,N/A,,Overcast,160,2011-01-18 00:22:00
7:31 PM,35.6,33.8,93,29.76,3.0,SSE,11.5,-,N/A,,Overcast,150,2011-01-18 00:31:00
7:53 PM,36.0,34.0,93,29.79,3.0,SSE,6.9,-,N/A,,Overcast,160,2011-01-18 00:53:00
8:53 PM,36.0,34.0,93,29.78,3.0,SSE,8.1,-,0.00,Rain,Light Rain,160,2011-01-18 01:53:00
9:21 PM,35.6,33.8,93,29.75,2.5,SSE,6.9,-,0.00,,Overcast,160,2011-01-18 02:21:00
9:53 PM,36.0,34.0,93,29.77,2.5,SSE,8.1,-,0.00,,Overcast,150,2011-01-18 02:53:00
10:53 PM,37.0,35.1,93,29.76,2.0,SSE,6.9,-,N/A,,Overcast,160,2011-01-18 03:53:00
11:50 PM,37.4,35.6,93,29.74,2.5,SSE,6.9,-,N/A,,Overcast,160,2011-01-18 04:50:00
11:53 PM,37.0,36.0,96,29.75,2.5,SSE,8.1,-,N/A,,Overcast,150,2011-01-18 04:53:00